Погода Большеречье

Погода Большеречье : погода сейчас, прогноз погоды и архив. Всё, что Вы хотите узнать о погоде Большеречье!

Хотите узнать прогноз погоды Большеречье? Тогда Вам сюда: Погода Большеречье

Поиск расширенной информации на нашем сайте:

Другие новости

Новости СМИ2

Главная страница сайта

Новости сайта

03.07.2017

Напоминаем, что на нашем специализированном сайте Метеоцентр.Азия вы можете получить высокодетализированные автоматические прогнозы погоды по пунктам России, СНГ и мира в авиационном формате (включающие направление и скорость ветра, видимость, явления погоды, количество и форму облачности, нижнюю и верхнюю границу облачности).


Погода Большеречье - сегодня

Время (UTC), дата Ветер
(°,м/с) 
Видим.   Явления Облачность Т
(°С)
Тd
(°С)
f(%) Тe
(°С)
Pmin
(гПа)
dP
(гПа)
Po
(мм)
O2
(г/м3)
Тmin Tmax R s Состояние
почвы
21 21.11.17 210 (ЮЗ) 10 км    10/3 600 м кучево-дожд., средняя 
[Cb calv|As op]
+0.6 -2.6 79 -1  1030  0.6  765  308           
00 22.11.17 210 (ЮЗ) 10 км    10/0 средняя 
[Ac As]
-0.5 -4.2 76 -3  1030.1  0.2  765  309           
03 22.11.17 200 (Ю) 20000 м    8/0 верхняя 
[Cs]
-4.3 -7.5 78 -7  1030.4  0.2  765  314  -4.3      равномерный
сухой снег
100% 
06 22.11.17 170 (Ю) 20000 м    9/0 средняя, верхняя 
[Ac As|Cs]
-4.8 -8.9 73 -6  1031.2  0.7  766  315  -4.8         
09 22.11.17 180 (Ю) 20000 м    9/0 средняя, верхняя 
[Ac As|Cs]
-2.7 -8.3 65 -5  1030.4  -0.7  765  312           
12 22.11.17 170 (Ю) 10 км    8/0 средняя, верхняя 
[Ac As|Cs]
-3.3 -8.9 65 -5  1029.6  -0.9  765  313           
15 22.11.17 170 (Ю) 10 км    10/0 средняя 
[Ac As]
-4.5 -9.5 68 -7  1029.3  -0.3  765  314    -2.2       
18 22.11.17 170 (Ю) 10 км    10/0 средняя 
[Ac As]
-5.6 -9.4 75 -9  1028.9  -0.4  764  315           
21 22.11.17 180 (Ю) 10 км    3/0 верхняя 
[Cs]
-6.3 -9.5 78 -10  1027.9  -1  764  316           
00 23.11.17 170 (Ю) 10 км    4/0 верхняя 
[Cs]
-6.7 -9.5 80 -8  1027.9  764  316           
03 23.11.17 190 (Ю) 20000 м    4/0 средняя, верхняя 
[Ac trans|Cs]
-6.3 -10.1 74 -10  1027.8  -0.2  763  316  -8.6      равномерный
сухой снег
100% 
06 23.11.17 180 (Ю) 20000 м    3/0 верхняя 
[Ci fib]
-4.6 -9.7 67 -8  1028.3  0.6  764  314           
09 23.11.17 190 (Ю) 20000 м    1/0 верхняя 
[Ci fib]
-2.7 -8.8 63 -5  1028  -0.2  764  312           
12 23.11.17 170 (Ю) 10 км    ясно 
-5.1 -9.7 70 -6  1028.6  0.4  764  315           
15 23.11.17 170 (Ю) 10 км    ясно 
-4.9 -10.9 63 -7  1028.8  0.3  764  315    -2.5       
18 23.11.17 180 (Ю) 10 км    ясно 
-6.7 -11.3 70 -8  1028.8  0.1  764  317           
21 23.11.17 180 (Ю) 10 км    ясно 
-7.1 -9.8 81 -10  1028.7  0.1  764  317           
00 24.11.17 180 (Ю) 10 км    ясно 
-7.3 -9.5 84 -11  1028.2  -0.5  764  317           
03 24.11.17 170 (Ю) 20000 м    ясно 
-6.8 -10 78 -9  1027.5  -0.7  763  316  -8.1      равномерный
сухой снег
100% 
06 24.11.17 170 (Ю) 20000 м    ясно 
-4.5 -8.9 71 -7  1027.2  -0.2  763  314           
09 24.11.17 180 (Ю) 20000 м    ясно 
-2.8 -8.7 64 -5  1025.7  -1.4  762  311           
12 24.11.17 160 (Ю) 10 км    ясно 
-4 -9.6 65 -6  1024.1  -1.6  761  312           
15 24.11.17 180 (Ю) 10 км    ясно 
-6 -10.8 69 -9  1022.8  -1.4  760  314    -2.4       
18 24.11.17 180 (Ю) 10 км    ясно 
-6.9 -10.6 75 -10  1020.8  -1.9  758  314           
21 24.11.17 190 (Ю) 10 км    ясно 
-8.3 -11 81 -11  1019.1  -1.8  757  316           
Время (UTC), дата Ветер
(°,м/с) 
Видим.   Явления Облачность Т
(°С)
Тd
(°С)
f(%) Тe
(°С)
Pmin
(гПа)
dP
(гПа)
Po
(мм)
O2
(г/м3)
Тmin Tmax R s Состояние
почвы

Для получения пояснительной информации подведите курсор к названию столбца.

ПОГОДА Большеречье - архив

Всё, что Вы хотите узнать о погоде Большеречье - удобно и подробно!

Выберите нужную дату (начиная с 1 января 2015* года) и нажмите кнопку "Найти".
Будут отображены архивные сводки погоды по пункту Большеречье, начиная с указанной даты.


Отображать данные в формате CSV (для использования в таблицах Excel)


Внимание! Наш архив погоды предназначен исключительно для личного некоммерческого использования в познавательных целях. Если Вам необходимы официальные справки о состоянии погоды (для производственных, юридических, коммерческих и т.п. целей), обращайтесь в органы Росгидромета.

*Примечание: данная дата относится к архиву по метеостанциям СССР (Россия, СНГ, Балтия).
Архив по метеостанциям Зарубежной Европы и Азии (кроме Китая) хранится 10 дней, по другим регионам земного шара (Китай, Африка, Америка, Австралия, Океания) - 1 день.

Большеречье - район местоположения метеостанции


Название, широта, долгота, высота метеостанции:
Большеречье 56.1°ш. 74.6°д. 77 м над ур. моря [Российская Федерация]

Дополнительная информация

В oтличие oт бoльшинства пoгoдных сайтoв мы публикуем пoдрoбную метеoинфoрмацию в детальнoм прoфессиoнальнoм фoрмате.

Характеристики температуры и влажнoсти вoздуха измеряются на высoте 2 м в тени вдали oт зданий и деревьев.
Скoрoсть ветра измеряется на высoте 10 м (на урoвне рoста челoвека скoрoсть ветра ниже в 1.5-2 раза). Если метеoстанция нахoдится в гoрoде или в лесу, тo скoрoсть ветра занижена на 2-4 м/с пo сравнению с oткрытым местoм. Скoрoсть ветра над акватoриями крупных рек и oзёр, а также на вершинах хoлмoв на 2-5 м/с выше, чем в oбычных услoвиях.
Атмoсфернoе давление в разных тoчках местнoсти мoжет значительнo oтличаться oт давления на метеoстанции, в зависимoсти oт услoвий рельефа (при пoдъёме на 10 м давление пoнижается примернo на 1 мм рт.ст.).